Location: Rancho Del Sol Observatory
(38.7214°N, 120.6350°W)
Time: 07:54:34
(UTC-08:00)

Cosmos 2221 Rocket - Visible Passes

Search period start: 20 February 2017 00:00
Search period end: 02 March 2017 00:00
Orbit: 621 x 648 km, 82.5° (Epoch: 20 February)

Date Brightness Start Highest point End Pass type
(mag) Time Alt. Az. Time Alt. Az. Time Alt. Az.
20 Feb 6.6 04:17:25 10° ESE 04:20:08 16° E 04:22:51 10° NE visible
20 Feb 4.0 05:53:36 10° SSW 05:57:54 42° W 06:02:15 10° N visible
21 Feb 5.4 04:38:04 10° SSE 04:42:07 32° E 04:46:11 10° NNE visible
21 Feb 4.9 06:16:55 10° WSW 06:20:20 21° WNW 06:23:47 10° NNW visible
22 Feb 3.9 04:59:42 10° S 05:04:13 71° E 05:08:46 10° NNE visible
23 Feb 6.7 03:46:51 10° ESE 03:48:49 13° E 03:50:47 10° ENE visible
23 Feb 3.7 05:22:01 10° SSW 05:26:28 53° W 05:30:56 10° N visible
24 Feb 5.7 04:06:59 10° SE 04:10:46 26° E 04:14:33 10° NNE visible
24 Feb 4.6 05:45:05 10° SW 05:48:51 25° WNW 05:52:39 10° NNW visible
25 Feb 4.2 04:29:47 20° SSE 04:32:50 56° E 04:37:18 10° NNE visible
25 Feb 5.4 06:09:28 10° W 06:11:23 12° WNW 06:13:19 10° NW visible
26 Feb 3.5 04:53:35 41° SSW 04:55:02 66° W 04:59:35 10° N visible
27 Feb 5.9 03:39:18 21° E 03:39:25 21° E 03:42:51 10° NE visible
27 Feb 4.4 05:16:50 30° W 05:17:22 31° WNW 05:21:25 10° NNW visible
28 Feb 4.8 04:02:17 40° ENE 04:02:17 40° ENE 04:05:47 10° NNE visible
28 Feb 5.2 05:39:48 15° WNW 05:39:53 15° WNW 05:42:34 10° NW visible
01 Mar 4.4 04:25:05 43° N 04:25:05 43° N 04:28:11 10° N visible
